Wind_Speed
7 6 6 6 6 6 6 6 6 6 6 6 7 7 7 8 8 8 8 7 8 8 7 7 6 8 11 13 13 12 11 10 9 8 4 2 4 7 7 9 10 9 9 8 9 10 11 11 12 12 12 13 13 13 12 12 11 8 8 8 6 7 4 3 2 4 4 2 4 7 8 8 6 5 6 6 5 4 4 4 3 4 2 2 4 4 3 3
8 7 7 7 7 7 7 7 7 6 6 6 7 7 7 7 8 8 7 7 7 7 8 7 6 6 8 11 13 13 12 11 12 10 5 4 7 9 10 10 10 9 9 9 11 13 13 13 13 13 12 12 12 12 12 12 11 8 9 9 6 6 2 3 2 3 7 2 5 6 5 6 5 4 6 6 7 5 2 3 4 4 2 3 4 3 3 3
9 8 8 8 8 8 8 8 8 8 8 7 7 7 7 7 7 7 7 7 7 7 7 7 6 5 5 8 11 13 13 13 14 13 7 7 8 9 9 10 10 10 10 12 14 15 15 15 14 14 13 13 12 12 11 10 9 7 9 10 8 4 0 2 2 5 7 6 7 7 4 5 6 4 4 5 7 4 2 3 4 4 3 3 4 4 3 2
10 9 9 9 9 9 9 9 9 9 9 9 8 8 8 8 7 7 7 7 7 7 7 7 6 6 5 6 8 11 14 15 15 14 11 10 10 11 10 9 10 10 11 14 15 17 16 15 15 15 14 14 12 12 11 10 9 9 10 10 9 5 3 3 4 7 8 10 11 11 8 7 8 4 3 4 6 3 5 4 3 3 3 3 3 3 3 1
10 10 10 10 9 9 9 9 9 9 9 9 9 9 8 8 8 7 7 6 6 7 6 6 6 5 5 5 6 8 12 15 16 15 14 13 13 12 11 10 10 10 11 13 15 17 16 15 16 16 15 14 12 12 12 11 10 11 11 10 10 7 6 6 9 11 11 12 11 13 11 9 10 7 6 6 5 4 6 3 2 2 3 3 3 4 3 3
11 10 10 10 9 10 9 9 9 9 10 10 10 9 9 8 8 7 7 6 6 6 6 6 6 5 5 4 5 7 10 13 14 15 15 15 15 14 12 12 10 11 11 11 13 16 17 17 16 16 15 14 13 13 14 14 14 13 12 11 10 8 8 10 14 18 17 13 12 12 11 12 13 11 9 7 6 3 4 2 2 3 4 3 3 4 4 4
12 11 10 10 10 10 10 10 10 10 10 10 10 10 10 9 9 8 7 7 6 5 5 5 5 5 5 4 4 6 8 11 13 15 17 17 16 15 14 13 11 10 10 11 12 14 16 17 16 16 17 15 14 14 14 13 14 14 13 11 10 7 8 11 15 20 21 16 12 10 10 11 13 11 9 8 8 4 4 3 3 4 5 4 3 3 3 4
13 12 11 11 11 11 11 11 11 11 11 11 11 11 11 10 10 9 8 8 7 6 5 4 4 4 5 4 3 5 8 10 11 11 15 16 16 16 15 14 12 9 9 12 13 14 17 17 17 18 17 15 15 17 16 14 15 19 18 14 9 7 8 9 12 16 21 19 10 9 11 11 12 12 9 9 9 5 4 5 5 5 6 6 3 2 3 4
14 13 13 13 12 12 12 12 12 12 12 12 12 12 11 11 11 10 9 8 8 7 7 5 4 4 4 4 4 4 6 8 9 9 10 14 16 16 16 15 13 11 10 11 13 14 15 16 18 18 17 18 19 21 19 17 19 23 21 17 11 5 5 3 7 11 18 19 12 11 12 11 12 13 10 10 10 6 4 5 6 7 6 6 4 2 2 3
15 15 14 14 14 14 13 13 13 13 13 13 13 12 12 12 12 11 11 9 8 8 8 7 6 5 5 5 4 4 4 5 7 8 8 10 14 17 16 16 14 13 12 11 12 11 11 15 19 20 22 23 23 23 22 19 20 21 20 17 14 8 4 3 4 7 15 18 15 13 11 9 11 14 12 12 10 6 6 6 7 8 7 6 5 2 2 2
16 16 16 15 15 15 15 15 15 14 14 14 14 13 13 12 12 12 12 11 9 9 9 8 7 6 7 6 5 4 4 5 6 7 8 7 11 16 18 18 17 16 14 12 11 11 13 17 22 24 26 25 25 25 22 21 22 22 20 17 15 12 10 9 5 5 12 16 15 14 12 8 10 14 11 11 9 5 6 7 7 8 8 7 5 3 2 1
18 18 18 17 17 17 16 16 16 16 16 16 15 14 14 13 13 13 13 12 11 10 9 8 8 8 8 8 6 5 5 6 6 6 7 7 8 12 18 20 20 18 16 14 12 13 15 19 23 24 23 23 25 25 23 23 24 22 18 16 16 15 16 13 8 7 11 14 13 14 15 10 11 14 10 9 7 5 6 7 5 6 7 7 6 3 1 1
19 19 19 19 18 18 18 18 18 18 17 17 17 16 16 14 14 14 14 13 12 11 10 9 8 9 11 10 7 7 5 5 7 7 6 7 8 9 14 19 22 21 18 17 15 15 16 19 21 20 21 24 24 21 23 26 24 22 19 15 14 17 18 13 8 6 11 15 15 14 17 14 13 15 12 10 6 4 5 6 5 6 7 7 6 3 1 2
18 19 20 20 19 19 19 19 19 19 18 18 18 17 17 16 15 15 15 15 14 13 11 9 8 8 13 12 8 8 7 6 8 8 7 7 8 9 10 14 19 22 21 19 19 18 18 18 19 20 21 22 22 20 22 25 24 23 21 14 11 15 16 15 12 11 12 15 16 16 18 19 18 18 14 10 6 3 3 4 5 6 7 7 6 4 2 2
18 18 19 19 20 19 19 19 19 19 19 19 19 19 18 16 16 16 16 16 15 15 13 11 9 8 14 14 8 8 10 9 9 9 9 8 8 9 10 11 14 19 22 22 21 20 20 19 18 18 18 19 21 23 24 25 24 22 20 13 11 11 14 17 16 15 14 16 19 18 20 22 22 20 16 10 5 4 3 2 3 6 8 8 6 4 2 2
17 17 18 18 19 19 19 19 20 21 21 20 20 21 19 17 18 18 17 17 16 17 16 13 11 11 15 15 9 10 12 11 10 10 11 11 10 9 10 10 11 15 19 22 23 23 22 21 18 17 17 18 20 21 25 27 25 22 19 13 10 7 13 17 14 10 11 15 19 19 19 22 21 20 19 14 8 6 5 2 3 6 8 7 6 4 3 2
19 19 19 18 19 19 19 19 20 21 22 21 21 22 21 18 19 20 19 18 17 18 18 15 13 12 15 15 13 13 12 13 14 12 11 12 11 11 10 11 11 12 16 20 23 24 25 23 20 19 18 18 18 20 24 23 20 19 16 13 9 8 14 18 14 9 11 14 16 16 17 19 20 21 22 18 11 7 7 5 4 5 7 7 5 4 4 3
22 22 21 21 20 20 20 20 20 21 23 22 21 23 23 20 20 22 22 20 19 21 20 16 13 13 15 16 16 17 14 13 15 13 12 12 12 12 12 12 12 12 13 16 19 22 25 24 23 22 20 19 19 19 16 11 12 15 13 11 10 11 14 18 17 14 15 17 17 17 16 18 20 23 22 19 15 11 9 7 4 5 6 6 5 4 5 5
25 25 25 24 23 22 21 22 22 22 23 24 22 22 22 21 21 22 22 22 22 23 22 19 15 14 16 18 19 19 15 13 15 15 14 13 13 13 13 13 12 13 12 13 15 19 21 23 25 23 21 20 18 15 11 9 14 16 14 13 12 15 16 18 20 18 16 17 19 18 16 18 22 22 20 18 17 14 11 9 5 4 6 6 5 4 5 7
28 27 27 27 27 26 24 24 24 24 25 26 25 23 22 21 22 22 20 22 23 23 24 22 18 15 17 21 21 19 19 17 16 16 16 15 15 14 14 14 13 13 12 11 13 15 19 22 21 20 20 19 17 15 13 14 18 18 18 17 16 19 20 18 20 18 12 13 16 16 17 20 22 23 22 20 19 17 13 10 7 5 6 6 6 6 6 8
30 29 29 29 30 30 28 27 27 27 26 27 27 26 24 23 24 23 21 21 23 24 23 23 21 15 18 25 23 19 20 19 17 18 17 17 18 16 15 15 14 13 13 13 14 15 17 16 14 16 19 20 19 18 17 17 20 21 20 18 18 21 22 19 19 18 11 14 16 18 19 21 23 24 26 25 22 19 16 12 10 8 7 8 8 8 8 8
31 31 31 31 32 33 32 30 30 30 29 28 28 28 28 27 27 26 23 20 21 25 23 24 24 18 19 27 25 22 20 18 17 20 19 19 19 17 16 16 15 15 16 16 16 15 13 9 9 14 18 22 22 21 20 19 22 23 21 20 20 19 24 25 22 21 16 18 20 22 23 22 24 26 30 29 25 20 17 15 11 8 8 8 9 10 10 8
32 32 32 32 33 35 35 33 33 33 32 31 30 31 31 31 30 28 26 20 20 25 25 24 25 21 19 24 28 26 20 17 19 21 22 21 20 19 18 17 16 17 18 16 16 16 11 6 8 14 17 21 24 23 23 22 23 24 23 22 20 22 26 26 21 21 21 21 21 21 23 24 25 29 33 31 26 22 19 16 11 8 7 8 10 11 11 8
34 33 33 33 33 36 37 36 35 35 34 33 33 34 35 35 33 31 30 25 20 23 28 27 25 21 20 25 30 28 20 18 20 20 22 22 22 21 19 18 19 19 18 17 18 17 12 9 12 15 17 19 22 25 26 25 25 24 24 22 21 27 27 23 22 23 21 21 18 15 21 28 30 32 34 31 29 25 19 15 11 7 7 9 10 10 11 10
37 36 35 34 34 35 38 38 37 37 36 34 33 35 37 37 37 34 33 32 24 20 28 31 26 23 24 28 29 28 25 22 21 21 22 23 24 22 21 21 20 18 18 20 21 18 13 13 16 17 17 18 20 24 27 27 25 24 24 20 20 29 29 24 26 23 20 20 17 18 26 31 32 33 33 32 31 26 19 16 13 9 8 9 10 11 11 11
39 39 37 36 35 34 38 40 38 38 38 36 34 36 38 38 39 37 36 37 29 23 28 31 29 26 26 28 27 29 29 24 23 26 24 23 23 22 24 23 20 18 20 23 24 19 15 17 19 17 17 18 20 22 25 27 27 25 21 19 22 31 32 28 27 26 24 20 16 21 28 29 30 32 33 33 31 27 22 18 14 11 10 9 10 12 12 12
42 42 40 39 38 36 37 40 40 40 39 38 36 37 40 39 39 38 38 39 33 26 29 31 30 28 27 28 28 28 26 24 26 27 23 23 23 23 25 23 19 19 22 25 22 16 17 21 20 18 18 19 19 20 21 25 27 23 19 21 25 30 33 31 30 31 30 24 20 21 25 27 28 28 29 29 29 27 22 17 14 14 13 11 11 12 13 12
44 44 43 42 41 39 38 40 41 41 40 39 39 39 41 40 39 38 39 42 36 29 30 31 31 30 28 30 28 26 25 26 27 26 25 27 25 24 24 21 20 20 24 27 20 15 20 22 19 19 21 20 16 16 18 23 24 18 19 25 27 29 32 31 32 34 31 30 30 26 25 29 28 25 25 27 28 28 22 16 15 17 17 14 12 13 13 13
47 47 46 45 44 43 41 41 42 44 43 41 40 41 41 41 41 40 42 43 37 31 32 33 32 30 30 31 29 27 28 27 27 28 28 28 26 25 24 22 24 24 27 28 21 20 22 20 20 24 23 19 16 16 19 23 22 18 22 27 28 30 32 32 34 34 33 37 38 33 30 33 30 27 28 30 30 27 21 17 18 19 18 17 14 14 14 14
49 49 49 48 47 46 45 43 42 45 46 44 43 42 42 42 42 43 46 44 36 34 35 33 33 33 33 32 30 29 30 28 29 32 31 29 28 28 27 27 29 29 29 29 23 22 23 23 25 26 23 20 19 21 21 23 21 19 25 29 29 32 34 35 36 34 38 46 44 37 33 34 33 31 32 34 31 25 20 19 20 19 19 19 17 15 14 14
52 52 52 52 50 48 48 47 44 44 46 47 46 45 44 44 44 46 48 42 37 39 39 35 36 37 36 36 34 34 34 32 33 35 33 32 31 32 31 31 32 32 32 30 23 21 24 27 26 24 23 23 23 24 22 22 22 22 27 30 31 33 36 39 39 40 45 50 47 39 34 35 39 35 32 33 29 24 22 20 20 18 18 20 20 18 17 16
54 54 54 55 53 51 51 50 48 46 46 47 49 48 47 48 48 49 46 41 41 44 43 40 41 41 40 40 39 39 38 37 37 37 36 34 34 34 31 30 31 32 32 29 24 23 25 26 25 25 25 25 26 25 24 24 24 24 27 31 34 36 39 42 42 45 47 45 42 41 37 39 43 37 31 31 29 25 23 20 20 19 18 19 21 21 20 19
57 57 57 57 58 56 54 53 53 51 49 48 50 50 50 51 51 50 46 44 45 47 45 44 44 44 44 44 43 42 42 41 41 41 40 39 39 38 35 33 32 33 32 30 29 29 28 27 27 27 26 25 26 26 25 25 24 25 26 31 35 36 40 43 43 45 45 40 39 41 41 44 45 39 34 32 30 28 24 21 21 20 18 20 21 21 21 21
58 58 59 59 60 60 58 57 56 55 54 52 52 53 53 53 52 50 48 47 47 47 47 48 48 48 48 47 45 44 44 43 43 44 44 44 44 43 40 37 36 35 33 34 35 33 32 30 28 26 24 23 25 25 24 24 25 26 26 27 32 35 39 41 41 45 44 41 41 42 45 48 46 40 36 33 32 29 26 24 23 23 22 23 23 22 21 21
58 58 59 60 61 62 61 60 59 58 58 57 56 56 55 54 53 53 52 51 50 49 50 51 51 50 50 49 48 46 46 45 43 44 47 47 47 46 42 39 37 36 35 36 36 35 35 33 27 26 26 25 26 24 23 26 28 28 26 29 34 35 36 37 39 41 43 44 44 44 47 48 45 41 38 36 34 30 26 24 24 26 26 26 26 23 21 21
59 59 60 61 62 62 63 63 61 60 60 59 60 59 57 55 55 56 55 55 54 53 51 51 51 52 51 50 50 49 49 47 44 44 47 48 49 48 45 42 39 38 38 37 36 36 38 34 26 27 31 29 27 25 25 29 29 28 30 32 32 29 28 33 37 38 41 45 44 43 47 47 45 43 40 37 35 30 26 25 23 25 25 26 25 23 21 22
61 60 61 62 63 63 64 63 63 62 61 61 62 61 59 58 58 58 58 58 58 57 54 52 52 53 53 52 53 52 53 51 49 48 47 48 50 49 47 45 42 41 39 37 37 37 39 37 30 30 32 29 27 26 28 31 30 31 32 30 28 27 28 33 38 39 41 45 42 40 45 47 45 44 39 37 36 33 29 27 26 25 25 26 25 21 19 21
64 63 63 63 64 65 65 64 64 63 63 64 63 63 62 61 59 59 59 60 60 60 59 58 55 54 55 55 54 54 56 56 54 53 51 50 51 49 48 47 45 43 39 37 39 39 39 41 37 34 33 30 28 31 33 34 34 33 31 29 29 31 32 33 37 39 40 43 39 35 39 43 42 40 38 37 38 35 32 29 27 25 26 26 24 20 17 17
67 66 66 65 66 67 66 66 66 65 65 65 64 63 63 62 61 61 61 62 62 62 63 63 60 58 57 58 57 56 58 59 58 57 56 55 54 50 48 48 46 44 40 38 40 39 39 42 41 37 35 33 34 38 39 37 35 34 33 33 34 34 34 33 35 37 38 40 38 33 34 37 35 35 37 38 38 35 31 27 24 23 25 23 20 17 14 14
70 69 69 68 68 68 68 69 68 67 67 66 65 65 64 63 63 62 63 63 63 64 64 65 64 62 61 60 60 59 60 61 60 60 59 57 55 52 49 47 47 46 43 40 41 40 41 45 44 39 37 39 41 44 41 38 36 36 37 38 37 36 36 36 37 38 38 40 40 36 34 31 27 31 36 37 36 34 30 25 22 22 22 19 16 14 15 14
72 71 71 71 70 69 69 70 70 70 69 67 66 66 65 65 64 64 65 65 66 66 66 66 66 66 64 63 62 61 62 63 63 62 61 58 56 54 49 43 39 40 42 45 45 43 43 46 46 42 42 45 45 41 39 38 37 37 37 37 37 36 36 38 39 40 40 41 41 39 36 29 24 25 30 33 32 29 26 24 23 22 20 18 16 16 17 16
76 73 72 73 72 71 70 70 71 71 70 68 68 66 65 65 66 66 67 68 69 69 69 70 70 70 69 67 64 64 65 65 66 66 64 61 58 56 52 44 36 35 40 47 48 45 42 43 47 47 46 45 43 40 39 39 37 36 37 35 35 37 38 39 40 40 39 41 41 40 39 33 24 21 24 28 28 24 22 24 24 22 20 20 20 21 20 19
78 75 73 72 72 73 72 70 69 71 71 70 69 68 67 67 68 69 69 70 71 72 72 73 73 73 74 72 69 68 69 69 68 68 67 65 61 58 56 54 50 46 43 42 41 38 38 44 49 50 47 44 42 42 42 41 39 39 39 36 35 37 38 37 38 38 39 40 39 41 43 37 25 20 20 23 27 26 24 25 24 22 23 23 23 23 21 19
78 74 70 70 71 71 70 68 68 69 70 70 71 71 70 70 70 72 72 72 73 74 75 76 77 77 77 76 74 72 73 73 72 71 70 69 66 63 62 61 60 56 49 45 42 37 39 47 50 49 50 49 47 47 48 47 45 44 42 40 38 37 36 37 37 39 41 42 41 43 46 41 28 21 20 23 30 31 28 27 25 23 24 26 24 23 21 20
74 69 64 65 68 67 65 66 68 68 68 69 71 72 72 72 72 73 73 75 76 77 78 79 80 81 80 79 78 77 77 76 75 75 74 72 70 69 67 65 62 59 54 53 53 51 49 51 50 51 56 57 55 54 52 50 49 47 45 43 40 37 36 37 39 42 45 44 42 44 46 42 33 26 23 23 31 34 32 29 27 25 26 27 25 23 22 21
66 62 57 57 61 62 60 61 63 64 65 66 67 68 69 71 72 72 73 75 77 78 80 81 83 84 83 82 82 82 80 79 78 79 78 75 72 71 70 67 64 61 57 53 52 54 54 54 55 57 60 59 55 51 48 48 49 48 47 45 43 39 37 38 41 45 45 43 42 43 43 40 36 32 27 23 26 31 32 30 30 31 30 29 28 26 23 22
54 52 49 47 49 52 53 54 56 58 60 62 63 64 65 67 69 70 71 73 76 78 81 82 83 85 85 85 85 84 83 81 81 81 80 78 74 73 73 70 66 63 60 55 52 53 55 56 59 62 62 60 55 48 44 46 49 49 47 46 45 41 38 40 45 46 43 42 43 40 38 38 37 35 31 25 22 26 32 31 28 28 29 32 34 32 26 22
38 38 37 36 35 37 40 43 47 50 53 56 59 60 61 63 65 66 67 70 72 75 78 80 80 82 86 87 85 85 85 83 82 83 82 79 77 74 73 72 69 65 62 59 56 55 57 58 60 62 62 60 56 50 46 46 48 49 48 48 48 45 41 42 43 42 40 42 41 36 34 37 36 36 33 28 22 24 33 34 29 25 25 29 34 33 27 24
28 26 26 25 23 24 28 33 37 41 44 47 51 54 56 58 61 63 64 66 66 68 71 75 76 79 85 88 86 85 84 83 83 83 83 81 79 76 73 72 71 68 65 64 61 59 60 60 59 60 61 59 56 53 49 48 49 51 50 49 49 48 45 43 41 39 39 40 37 33 34 36 36 36 35 30 25 25 34 39 36 31 28 27 29 30 29 30
20 18 17 17 15 16 20 25 29 32 34 37 42 45 48 51 54 57 59 62 62 62 63 68 73 77 81 86 87 86 84 84 83 83 83 82 81 79 75 72 71 70 69 68 66 63 63 63 60 59 59 59 55 52 50 50 51 52 52 50 50 49 46 44 42 40 40 40 37 34 35 36 35 35 35 33 31 28 32 39 40 37 34 31 29 28 31 36
15 14 13 12 11 12 15 19 23 26 28 31 35 37 39 41 43 46 50 53 57 59 59 62 67 71 74 78 82 83 82 83 83 83 84 85 84 83 81 75 72 72 72 71 70 68 66 65 62 59 58 58 55 49 48 50 51 53 55 53 51 49 46 46 46 43 39 37 37 38 40 37 33 33 34 35 37 35 31 36 42 41 39 36 32 30 31 34
13 13 13 12 9 11 13 15 17 20 24 29 31 32 32 33 34 37 40 43 47 53 57 58 60 65 68 69 71 75 77 79 81 83 85 87 86 86 85 80 75 73 73 74 73 71 69 67 64 60 58 58 55 47 43 44 47 55 61 58 51 47 46 46 44 39 34 33 34 39 40 34 30 31 34 37 39 38 32 35 43 44 42 40 38 37 37 36
Wind_Direction
307 308 310 312 312 312 314 317 321 328 332 338 342 342 341 335 327 319 310 305 300 300 303 303 289 269 258 252 246 242 236 235 245 247 226 188 212 221 218 217 218 212 212 206 190 189 190 190 186 181 177 176 176 173 170 170 166 159 161 156 170 207 265 328 355 351 307 301 9 350 348 354 356 352 358 1 354 342 308 298 286 276 279 288 286 290 289 273
306 310 313 314 315 316 316 317 319 319 321 324 328 333 338 340 340 336 327 317 307 298 296 298 300 289 269 257 251 245 239 232 237 243 219 181 205 210 212 215 218 208 197 199 199 197 196 196 191 185 184 182 181 179 177 174 170 177 166 145 153 189 243 285 216 331 308 320 20 348 343 343 339 7 9 7 14 18 343 280 270 273 271 275 282 285 279 271
306 307 308 311 313 315 318 320 320 320 322 322 322 323 324 331 336 340 341 336 324 311 300 294 295 295 284 268 257 249 243 237 236 241 226 210 222 225 226 221 220 212 196 197 200 200 200 198 192 188 187 187 187 183 182 179 174 182 165 147 148 156 247 277 269 343 325 318 345 346 360 334 322 18 11 5 32 19 305 283 289 295 291 294 288 287 288 260
301 301 301 302 303 306 308 311 313 314 317 317 319 319 317 319 322 330 338 342 341 332 318 306 297 291 288 278 267 255 245 240 237 238 232 225 228 234 241 233 225 219 204 198 197 201 203 196 192 192 190 190 190 186 186 178 174 186 174 164 163 134 56 17 339 337 336 330 333 335 349 336 316 9 21 9 39 324 285 311 320 312 298 310 306 302 308 269
297 297 296 296 296 297 299 302 304 306 308 310 312 312 313 313 312 317 322 333 342 344 340 328 316 301 288 280 275 265 250 243 239 237 236 231 232 234 238 238 230 223 214 204 199 200 202 197 194 194 192 193 188 185 189 173 170 195 184 173 171 130 79 47 11 357 348 336 330 325 332 333 323 359 18 10 26 299 288 305 297 297 293 318 331 325 322 300
292 291 292 293 294 295 297 299 302 304 306 307 309 308 309 310 308 308 308 315 325 336 346 344 339 328 305 285 272 270 260 250 239 234 234 233 234 233 233 237 232 226 221 211 207 202 200 199 197 195 193 193 189 188 193 178 176 196 188 171 166 134 82 48 19 4 353 330 311 311 318 326 327 349 5 22 44 330 319 335 289 296 303 327 346 337 330 315
286 285 286 288 291 294 297 299 301 303 305 307 308 309 309 309 309 307 305 304 307 317 329 343 347 343 335 312 274 266 267 258 243 232 231 231 234 235 234 236 233 229 223 216 214 206 202 200 196 198 197 192 192 197 194 182 189 202 196 180 161 128 83 53 21 359 349 331 304 304 315 319 322 332 345 25 47 13 355 358 323 312 317 334 355 342 332 324
280 281 282 284 288 292 295 298 300 302 304 306 306 308 309 309 309 308 307 305 302 301 305 322 333 338 341 331 309 274 269 271 267 251 238 234 234 237 236 236 236 229 222 218 215 209 205 198 196 200 198 192 194 205 198 182 200 211 205 189 157 103 84 62 21 349 338 334 318 313 318 311 312 316 330 12 32 29 8 342 332 334 331 337 354 354 335 327
277 277 278 280 284 288 292 295 298 301 302 304 305 307 308 308 307 306 305 304 303 300 298 302 304 315 320 323 336 309 281 281 283 274 252 239 236 239 239 238 237 230 225 223 217 216 210 196 198 200 198 199 198 208 206 191 204 215 209 192 166 109 84 56 8 335 324 330 327 319 309 302 308 306 322 1 23 29 358 339 339 347 345 338 347 5 344 333
277 276 276 277 279 282 286 289 292 296 298 300 302 304 306 306 306 306 304 303 301 299 296 298 295 294 295 301 322 317 299 287 280 278 268 248 237 237 241 241 237 233 228 229 226 220 212 199 200 202 202 204 203 207 209 202 212 222 216 203 186 163 166 247 317 308 309 317 324 321 294 289 313 305 314 346 7 14 349 346 348 350 351 337 339 360 352 344
277 276 275 275 276 278 281 284 287 289 291 293 295 297 300 301 303 304 303 303 302 297 293 295 293 288 286 287 295 300 298 292 282 279 277 262 241 235 238 241 239 236 230 228 229 215 208 203 204 208 205 205 206 209 210 209 220 229 228 225 211 191 196 212 206 246 287 307 322 321 292 285 315 305 314 339 352 7 345 345 349 348 349 336 332 350 351 341
278 277 276 276 276 277 279 280 282 284 285 286 287 290 291 292 296 298 298 302 303 300 294 292 291 287 282 281 282 283 284 287 288 286 279 268 253 237 235 240 240 238 233 228 224 216 212 209 212 215 210 208 211 212 211 214 224 234 238 242 235 217 210 202 177 210 260 289 307 312 298 293 305 301 316 341 353 10 337 331 343 344 344 335 324 330 337 312
281 280 279 278 277 276 277 277 278 279 280 280 282 283 283 284 286 289 291 295 297 296 297 297 294 290 283 278 272 271 270 272 277 284 287 278 271 254 237 238 241 240 236 231 225 220 217 217 221 220 214 214 215 214 213 218 224 232 240 246 240 230 220 199 164 200 244 265 277 296 301 297 300 299 312 331 340 358 329 318 331 337 335 329 317 310 316 288
284 282 281 280 278 276 275 275 275 275 276 277 278 278 277 278 279 281 284 286 287 287 291 295 298 291 280 275 272 272 264 244 255 268 276 274 268 264 250 240 241 241 239 235 231 226 222 224 226 222 219 217 214 213 218 223 224 228 237 246 252 242 222 194 183 212 236 250 261 281 295 298 301 301 308 322 325 336 326 309 320 322 317 317 310 303 303 287
285 284 283 282 280 279 276 275 275 275 275 275 276 275 274 274 276 276 277 278 279 280 282 285 287 280 275 279 283 271 264 249 243 252 260 263 258 256 256 247 242 243 242 238 235 232 229 228 229 229 226 220 214 210 215 226 229 230 238 253 276 257 213 194 197 212 224 239 255 271 285 292 299 304 309 314 315 319 327 305 298 299 299 302 303 298 296 300
281 281 282 282 282 282 280 278 276 276 275 275 276 275 274 275 276 274 272 272 275 276 276 275 275 272 275 283 281 261 261 259 247 241 246 253 256 254 256 254 245 243 245 244 240 237 235 233 232 234 231 225 221 214 212 222 230 233 238 247 269 243 194 191 196 205 216 235 253 263 272 281 292 306 311 313 312 304 308 299 262 275 285 291 298 295 279 280
278 278 278 279 280 281 282 281 279 277 276 275 275 276 277 277 276 275 272 272 273 273 272 272 272 272 273 276 275 263 258 260 256 247 238 238 245 249 251 252 248 242 243 246 245 242 240 238 235 233 233 231 229 223 218 223 231 234 235 235 243 219 186 178 174 187 216 235 252 259 266 277 292 307 312 313 310 295 302 302 254 255 276 289 297 293 267 247
277 278 278 278 278 279 281 281 280 278 278 278 275 275 278 276 274 275 276 275 274 272 272 273 272 270 268 269 269 266 260 259 262 258 243 233 235 239 242 245 249 246 243 248 251 249 246 244 239 235 234 234 233 233 233 234 231 233 235 225 220 218 194 172 163 179 210 230 244 249 261 278 294 307 313 315 309 299 298 300 274 239 260 287 296 282 260 239
275 277 278 279 279 279 279 280 279 277 279 280 278 277 278 278 275 274 276 277 275 273 273 273 272 269 268 266 263 266 266 259 258 260 255 246 238 236 239 242 247 248 247 250 253 255 255 250 244 241 239 240 242 246 249 228 218 225 227 213 210 217 198 169 165 178 201 224 238 248 265 284 295 305 312 314 312 307 295 295 303 249 237 268 287 274 251 240
272 274 276 277 278 278 278 278 278 276 276 278 279 278 278 279 277 275 273 273 272 271 271 271 268 266 268 266 262 263 262 256 253 256 257 255 249 241 239 240 242 248 251 251 250 252 255 254 252 249 246 245 244 247 242 221 215 219 218 207 200 202 192 173 167 177 205 227 238 257 274 285 295 303 304 301 302 306 297 286 296 276 234 238 264 268 243 232
271 271 272 274 276 276 275 275 275 274 274 274 276 277 277 275 273 272 269 268 271 269 269 269 266 261 263 265 263 260 260 260 260 259 256 255 255 248 241 239 239 244 247 245 243 245 252 262 267 255 245 242 238 237 235 223 214 217 218 207 195 196 198 194 173 167 206 239 244 261 274 283 292 296 297 291 290 301 298 279 277 274 244 225 240 258 244 226
270 270 270 271 273 273 273 272 272 272 271 271 271 272 273 271 268 267 266 269 275 272 267 267 266 256 254 265 269 264 260 260 259 258 256 253 255 253 245 241 237 235 238 241 245 251 260 283 284 258 244 239 234 231 231 225 216 215 217 209 196 190 197 200 180 164 191 225 238 256 269 278 285 287 288 286 285 294 296 282 271 261 244 223 225 245 245 223
269 269 269 269 271 272 271 270 269 269 269 269 268 268 268 267 266 268 267 266 271 273 270 264 262 258 254 261 265 260 255 255 253 254 255 254 254 252 249 245 238 233 234 239 247 253 261 277 263 248 241 238 235 231 229 226 220 215 215 212 190 174 186 194 181 171 190 213 230 249 261 265 272 277 280 283 286 291 295 287 270 248 239 226 223 237 244 228
270 269 268 268 268 270 271 270 268 267 267 267 267 267 267 266 266 267 267 263 259 268 272 266 260 260 255 252 257 262 262 258 255 253 254 256 254 253 254 250 242 237 235 235 239 243 244 240 239 239 237 236 234 232 231 229 226 218 216 214 187 174 183 185 177 182 199 210 219 240 252 255 260 268 274 280 285 291 297 290 270 250 242 234 230 234 238 230
271 270 269 268 267 268 269 269 268 267 266 265 265 265 266 266 266 265 266 264 256 258 268 268 263 258 254 255 260 266 263 256 254 251 249 251 252 253 254 251 247 243 238 236 236 235 232 232 236 239 239 238 234 232 232 232 231 224 220 217 190 177 180 180 179 190 206 206 212 232 240 248 257 263 269 275 279 286 292 287 275 263 247 232 231 235 234 230
271 270 269 268 267 267 268 268 268 267 266 265 264 264 264 264 265 266 265 264 259 254 259 264 266 260 256 258 259 260 260 257 252 250 249 250 252 255 255 252 250 247 242 240 238 233 227 230 233 236 239 241 240 236 232 231 232 228 221 217 199 185 185 187 185 194 206 201 206 233 238 243 254 259 264 270 275 282 284 278 277 275 259 232 224 229 232 231
271 271 270 269 267 266 267 268 267 266 266 265 263 262 262 262 263 265 265 264 260 254 254 258 262 260 257 257 255 257 262 260 254 252 253 254 251 252 254 253 250 247 246 246 244 236 229 231 233 235 238 240 243 244 237 233 236 230 216 215 208 196 195 194 191 199 208 203 202 228 242 244 248 256 264 270 275 279 277 271 281 292 280 251 224 221 228 231
271 271 270 269 267 265 264 266 267 267 265 265 263 261 262 262 262 263 263 263 261 256 255 255 256 256 256 256 255 256 257 257 259 256 252 249 247 247 252 255 251 244 246 249 245 234 232 231 231 233 235 237 241 248 243 240 241 227 210 216 212 205 202 195 196 203 209 212 210 215 235 243 246 253 263 267 269 271 270 273 292 302 294 271 235 221 226 229
271 270 269 268 267 265 263 262 264 266 266 264 263 262 261 261 261 261 260 260 260 258 255 254 255 255 254 253 253 254 253 255 258 257 252 249 248 248 250 253 251 244 246 251 243 233 238 234 230 231 232 233 235 238 239 242 242 220 210 219 213 208 206 198 201 205 209 218 217 210 222 238 245 248 252 256 258 262 268 277 292 299 294 279 253 232 227 227
270 269 268 268 267 266 264 261 259 262 265 264 263 262 261 261 260 260 258 258 259 258 256 254 254 253 252 252 251 250 251 251 252 253 253 251 248 247 246 245 249 249 250 254 248 239 241 236 233 235 232 228 227 227 230 237 238 218 211 219 214 209 209 206 208 209 213 220 219 213 218 232 240 241 242 247 251 257 266 274 284 290 287 281 267 247 233 229
270 270 269 268 267 267 266 263 259 258 261 262 262 261 260 260 259 258 257 258 259 257 255 254 251 249 249 249 248 246 246 246 248 250 251 251 250 248 246 246 251 254 254 258 260 250 245 243 242 243 238 232 229 227 226 231 233 221 213 217 216 212 210 211 212 211 217 222 221 218 218 227 238 239 239 246 251 252 255 264 273 277 277 278 273 260 247 238
272 272 272 270 268 268 267 266 263 259 258 259 260 260 259 258 257 257 258 260 259 257 255 254 251 249 247 246 246 245 245 245 247 249 250 250 250 249 249 251 253 255 255 258 259 252 247 247 247 244 240 237 236 234 229 227 230 227 218 215 217 214 212 215 215 214 222 228 225 219 218 227 239 243 241 246 251 251 252 260 267 266 267 273 272 266 260 250
274 274 274 272 270 269 268 268 266 264 261 259 258 259 258 257 256 257 258 257 256 257 257 255 253 251 249 247 246 245 246 245 245 247 248 248 249 248 247 249 250 251 253 252 250 247 243 242 241 241 240 238 238 238 235 232 233 235 228 221 221 219 219 222 221 219 227 235 230 220 220 228 237 243 244 244 247 251 255 262 264 258 262 272 271 264 261 255
274 273 273 272 271 270 270 268 267 266 265 262 260 258 257 256 257 257 256 255 254 254 254 254 253 252 250 249 248 247 247 247 246 247 247 247 248 248 246 247 249 251 253 252 251 249 247 246 245 246 247 245 243 243 242 240 238 239 237 232 232 228 226 227 224 222 227 234 231 222 223 230 235 240 245 245 246 250 256 262 262 259 264 272 270 262 255 252
272 272 271 271 270 270 270 269 267 266 265 264 262 260 258 257 257 257 256 254 252 250 251 252 252 251 251 250 250 249 248 247 246 246 247 247 247 248 247 246 248 250 251 252 254 254 253 252 250 250 248 242 241 240 239 239 238 237 235 234 235 232 230 231 230 228 229 232 233 229 230 235 238 241 244 243 243 248 256 263 265 266 268 267 265 263 256 250
271 271 270 269 268 268 268 267 267 265 264 263 262 261 260 259 257 256 255 254 252 250 249 249 250 250 250 249 249 248 247 246 244 243 245 247 247 246 245 244 244 246 248 250 253 254 254 251 246 246 246 242 239 236 233 236 238 238 236 236 239 238 236 237 236 234 231 233 238 237 236 238 240 241 241 239 239 243 249 254 257 262 263 260 262 267 265 258
270 270 270 268 267 266 265 264 264 263 262 261 261 261 260 258 256 255 254 253 252 250 248 245 244 247 248 247 246 247 246 244 241 240 241 244 245 245 244 243 241 242 244 247 249 249 251 250 241 239 243 243 241 236 232 234 234 236 238 240 241 240 236 235 236 234 231 235 241 240 238 240 241 242 241 238 237 238 239 243 248 252 253 254 260 268 273 271
271 271 271 269 268 266 264 263 262 261 260 259 259 258 257 256 254 253 252 251 250 249 247 244 241 240 243 245 244 244 245 244 242 239 237 238 241 243 244 244 242 241 241 242 245 246 247 248 243 238 237 236 235 234 230 229 230 233 238 239 237 237 235 234 237 237 234 237 242 242 240 241 243 244 241 237 237 239 238 239 246 249 248 252 260 266 279 286
271 272 272 271 269 267 265 263 262 260 259 258 257 256 255 253 251 249 248 248 248 247 246 245 241 237 236 239 241 241 243 244 243 241 239 237 237 237 240 243 243 240 239 239 241 243 245 247 244 239 236 231 230 232 231 229 228 228 230 231 230 234 237 238 243 246 244 242 244 246 245 244 244 245 242 238 238 239 238 239 247 251 249 254 261 264 278 292
273 273 274 272 270 269 267 265 263 261 260 258 257 255 253 251 249 247 245 244 244 244 244 244 243 240 236 234 235 236 239 241 242 242 241 240 239 236 234 238 241 241 240 239 239 239 241 244 242 239 237 234 230 233 236 235 232 228 228 231 230 230 233 235 241 245 247 246 245 247 250 250 247 244 242 241 240 240 241 243 250 255 255 256 259 263 276 287
276 275 275 273 271 270 268 266 264 263 261 259 257 255 253 251 248 245 243 242 241 240 241 241 241 240 237 233 230 230 232 237 239 240 240 241 241 239 234 233 240 244 243 240 237 235 237 242 243 239 237 238 236 236 239 239 237 234 233 236 238 237 235 236 240 241 243 247 248 249 255 258 254 246 243 243 240 240 244 243 244 249 254 257 260 267 277 282
278 277 276 274 272 271 269 267 265 263 261 259 256 254 251 249 247 245 242 241 239 238 237 237 237 237 236 233 228 224 225 231 235 237 238 238 238 239 235 229 230 235 239 240 239 239 238 240 243 240 237 239 240 238 236 235 235 236 234 232 235 240 239 239 243 244 246 251 253 254 259 261 257 251 245 237 230 229 230 232 235 241 249 256 258 264 270 273
279 278 276 274 273 271 268 266 263 261 260 259 256 253 249 246 245 243 241 239 238 237 236 235 235 234 234 232 228 224 222 225 229 232 234 234 234 233 232 231 230 228 229 235 241 245 243 238 237 237 236 235 235 236 236 231 226 228 231 226 225 233 238 238 242 247 249 252 255 257 260 260 255 251 244 228 220 220 218 222 231 238 243 250 256 262 264 264
280 278 276 274 272 270 267 264 260 259 258 256 254 252 250 245 242 241 240 238 236 235 234 233 233 232 232 232 229 226 222 221 222 225 229 230 230 230 230 233 235 229 222 224 229 235 238 236 234 234 233 230 226 225 228 229 226 227 232 230 224 225 232 235 237 239 243 245 247 251 256 260 256 249 241 223 215 214 212 216 229 240 245 248 251 257 258 256
280 278 274 272 270 267 263 260 258 257 255 254 252 252 250 246 242 240 239 237 235 233 232 232 232 231 231 230 229 227 224 221 219 221 224 226 227 228 229 231 231 229 223 221 223 224 227 232 234 232 230 229 227 226 228 231 233 235 237 236 229 222 223 231 234 235 238 240 240 245 253 259 259 252 241 226 218 217 214 216 224 235 243 246 246 250 254 252
281 277 272 268 267 264 258 256 255 253 251 250 249 248 247 245 242 240 237 235 234 233 232 231 231 230 229 229 228 227 225 222 220 220 220 221 222 224 226 227 226 225 222 218 219 222 224 226 230 232 231 230 230 232 233 233 235 238 238 239 237 228 221 227 234 237 240 240 241 246 252 257 259 256 249 237 226 220 216 217 222 228 234 236 235 236 238 242
281 277 271 266 263 260 256 253 251 249 248 246 245 243 242 241 240 239 237 234 233 233 232 231 231 231 229 228 227 226 226 224 221 220 218 218 218 219 222 223 222 222 220 214 213 218 222 225 228 230 231 231 229 228 227 229 233 237 237 239 241 237 227 226 232 238 242 243 244 247 250 253 257 258 254 252 239 214 207 214 222 227 232 233 232 229 222 227
281 277 272 266 260 256 252 249 248 245 244 244 243 241 239 239 238 237 236 235 233 233 233 232 232 232 230 228 227 226 226 225 222 221 218 216 214 215 217 218 218 218 216 211 210 214 219 225 229 230 231 231 230 226 221 221 226 231 234 237 240 239 236 233 236 239 240 244 247 247 248 251 254 254 250 249 239 209 201 211 220 226 233 236 239 239 231 227
281 276 273 269 261 251 246 244 244 243 241 242 242 240 239 238 237 236 235 234 233 234 235 234 233 233 231 228 228 227 226 224 223 221 219 214 211 211 211 212 213 214 211 208 209 212 216 222 226 229 230 231 230 227 220 216 218 222 227 232 236 238 238 239 242 242 240 244 247 246 245 246 246 249 247 241 232 211 201 209 218 226 231 234 239 244 241 239
283 279 275 273 264 249 240 238 240 241 240 242 242 241 240 239 238 237 237 235 233 233 236 237 235 234 232 229 228 227 225 224 222 220 218 214 209 208 207 206 207 209 208 207 209 212 216 220 223 226 229 230 230 229 224 216 214 216 220 226 231 233 235 237 241 244 243 243 243 240 239 240 239 243 245 241 237 228 211 207 215 224 227 231 238 243 245 249
286 277 271 269 261 249 240 235 236 237 237 240 242 242 242 243 243 241 240 239 238 234 234 237 237 236 234 232 232 230 227 224 221 218 216 213 208 207 206 203 202 204 205 205 209 213 215 217 220 224 227 228 227 228 226 220 214 212 213 219 225 227 228 232 236 242 246 248 247 242 238 238 237 236 241 240 239 241 230 211 211 220 225 229 235 237 241 248
287 273 265 263 256 247 244 241 240 238 233 235 240 243 243 245 248 248 243 240 241 239 236 236 238 238 236 235 235 235 232 227 223 218 215 213 209 206 206 204 201 201 202 204 207 212 215 215 216 221 224 225 224 223 224 224 219 214 213 214 218 220 223 228 231 237 245 250 250 246 241 239 235 232 236 239 237 239 233 215 210 216 223 227 231 232 232 236
Height
5904 5904 5903 5903 5902 5901 5901 5900 5900 5899 5898 5897 5897 5896 5896 5895 5894 5894 5893 5893 5893 5892 5892 5892 5892 5892 5892 5893 5894 5894 5895 5896 5895 5895 5896 5896 5896 5896 5897 5898 5899 5899 5900 5902 5903 5904 5904 5905 5905 5906 5906 5907 5907 5907 5908 5909 5909 5910 5910 5910 5911 5910 5909 5911 5911 5912 5912 5911 5910 5910 5909 5910 5911 5912 5913 5913 5913 5914 5913 5913 5913 5914 5914 5915 5915 5916 5916 5916
5903 5903 5902 5902 5901 5901 5900 5899 5899 5898 5897 5897 5896 5895 5895 5894 5894 5893 5893 5892 5892 5892 5891 5891 5891 5891 5891 5891 5891 5892 5893 5894 5894 5894 5895 5895 5895 5895 5896 5896 5897 5898 5899 5901 5902 5903 5903 5903 5904 5905 5905 5906 5906 5907 5908 5908 5909 5910 5910 5910 5911 5911 5911 5911 5911 5912 5911 5911 5910 5910 5910 5910 5911 5912 5913 5913 5913 5913 5913 5912 5912 5913 5914 5914 5915 5915 5915 5916
5903 5902 5901 5901 5900 5900 5899 5899 5898 5897 5897 5896 5895 5895 5894 5893 5893 5893 5892 5892 5891 5891 5890 5890 5890 5890 5890 5890 5890 5890 5891 5892 5892 5893 5894 5894 5894 5894 5895 5895 5896 5897 5898 5899 5900 5901 5902 5902 5903 5904 5904 5905 5906 5906 5907 5908 5909 5909 5910 5910 5911 5912 5912 5911 5911 5911 5910 5910 5910 5910 5910 5910 5910 5912 5913 5913 5913 5913 5912 5912 5912 5913 5913 5914 5914 5914 5914 5915
5902 5901 5900 5900 5899 5899 5898 5897 5897 5896 5896 5895 5894 5894 5893 5893 5892 5892 5891 5891 5891 5890 5890 5889 5889 5889 5889 5889 5888 5888 5889 5890 5890 5891 5892 5893 5893 5893 5894 5894 5895 5895 5897 5897 5898 5899 5900 5901 5902 5903 5904 5904 5905 5906 5907 5908 5909 5909 5910 5911 5911 5911 5912 5912 5912 5911 5910 5909 5909 5909 5909 5909 5909 5911 5912 5913 5914 5913 5912 5912 5912 5913 5913 5914 5914 5913 5913 5914
5900 5900 5899 5899 5898 5897 5897 5896 5896 5895 5895 5894 5893 5893 5892 5892 5891 5891 5890 5890 5890 5890 5889 5889 5889 5889 5888 5888 5887 5887 5887 5887 5888 5889 5890 5891 5891 5891 5892 5893 5894 5894 5895 5896 5897 5898 5899 5900 5901 5902 5903 5904 5905 5906 5906 5907 5908 5909 5910 5911 5910 5910 5911 5912 5912 5911 5911 5909 5909 5908 5909 5908 5907 5909 5911 5911 5913 5912 5911 5912 5912 5912 5912 5913 5913 5912 5912 5913
5899 5899 5898 5898 5897 5896 5896 5895 5895 5894 5893 5893 5892 5892 5891 5891 5890 5890 5889 5889 5889 5889 5888 5888 5888 5888 5887 5887 5887 5886 5885 5885 5886 5887 5888 5889 5889 5890 5891 5891 5892 5893 5893 5894 5895 5896 5898 5899 5900 5902 5903 5904 5905 5905 5906 5906 5907 5908 5910 5910 5909 5908 5909 5910 5911 5911 5912 5911 5911 5910 5909 5908 5906 5907 5909 5911 5913 5912 5911 5911 5911 5911 5911 5911 5911 5911 5911 5912
5898 5898 5897 5897 5896 5896 5895 5894 5894 5893 5892 5892 5891 5891 5890 5890 5889 5889 5888 5888 5888 5888 5888 5887 5887 5887 5886 5886 5886 5885 5884 5883 5884 5885 5886 5886 5887 5888 5889 5890 5891 5892 5892 5893 5894 5895 5897 5898 5900 5901 5902 5903 5904 5905 5906 5906 5908 5910 5910 5909 5908 5907 5908 5909 5910 5911 5912 5912 5912 5911 5910 5909 5907 5908 5909 5911 5912 5911 5909 5910 5911 5911 5910 5910 5911 5911 5911 5911
5897 5896 5896 5895 5895 5894 5894 5893 5893 5892 5891 5891 5890 5889 5889 5888 5888 5888 5887 5887 5887 5887 5887 5887 5886 5886 5886 5885 5885 5885 5884 5882 5882 5884 5884 5885 5886 5886 5887 5888 5890 5891 5891 5892 5892 5894 5895 5896 5899 5900 5902 5904 5904 5905 5905 5906 5908 5908 5908 5907 5906 5906 5907 5908 5910 5912 5912 5912 5913 5912 5910 5910 5909 5908 5910 5911 5911 5909 5909 5909 5910 5910 5909 5909 5910 5910 5911 5911
5895 5895 5894 5894 5893 5893 5892 5892 5891 5890 5890 5889 5888 5888 5887 5887 5886 5886 5886 5886 5886 5886 5885 5885 5885 5885 5885 5884 5884 5884 5883 5883 5882 5882 5883 5884 5885 5885 5885 5886 5888 5889 5890 5890 5891 5891 5893 5895 5897 5899 5901 5902 5903 5903 5903 5904 5905 5905 5905 5904 5903 5904 5905 5907 5909 5912 5912 5912 5913 5913 5911 5910 5909 5908 5909 5911 5910 5909 5909 5909 5909 5909 5909 5908 5909 5909 5910 5910
5893 5893 5892 5892 5891 5891 5890 5890 5889 5889 5888 5888 5887 5886 5886 5885 5885 5884 5884 5884 5884 5884 5884 5884 5884 5884 5884 5884 5884 5883 5882 5882 5881 5881 5882 5882 5883 5884 5884 5884 5886 5887 5888 5889 5890 5891 5892 5894 5896 5897 5898 5898 5900 5900 5901 5903 5904 5903 5903 5901 5901 5901 5903 5905 5907 5910 5911 5911 5912 5912 5911 5910 5909 5908 5909 5910 5909 5909 5908 5908 5908 5908 5908 5908 5908 5909 5909 5910
5891 5890 5890 5890 5889 5889 5888 5888 5887 5887 5886 5886 5885 5885 5885 5884 5883 5883 5882 5882 5883 5883 5883 5883 5883 5882 5882 5882 5882 5882 5882 5881 5881 5881 5881 5881 5882 5882 5882 5883 5884 5885 5886 5888 5889 5890 5891 5892 5892 5892 5893 5896 5898 5899 5900 5902 5903 5902 5901 5901 5900 5899 5900 5902 5905 5908 5910 5910 5911 5911 5910 5911 5910 5908 5909 5910 5910 5909 5908 5908 5908 5907 5908 5908 5908 5908 5909 5910
5889 5888 5888 5888 5887 5887 5886 5886 5885 5885 5884 5884 5883 5883 5883 5882 5882 5881 5881 5881 5881 5881 5881 5881 5881 5881 5881 5881 5881 5881 5881 5880 5880 5880 5880 5880 5880 5881 5881 5881 5882 5883 5884 5886 5887 5888 5888 5889 5888 5889 5892 5895 5896 5897 5899 5900 5900 5900 5900 5900 5899 5898 5898 5900 5902 5905 5908 5909 5910 5910 5909 5910 5909 5908 5909 5910 5911 5911 5909 5908 5907 5907 5907 5908 5908 5908 5908 5909
5887 5886 5886 5885 5885 5885 5884 5884 5883 5883 5882 5882 5881 5881 5881 5880 5880 5880 5879 5879 5879 5879 5879 5880 5880 5880 5879 5879 5879 5879 5880 5879 5878 5878 5878 5878 5878 5879 5879 5880 5880 5881 5882 5883 5885 5886 5886 5887 5887 5888 5891 5892 5894 5896 5897 5897 5898 5899 5898 5898 5898 5897 5898 5900 5902 5904 5907 5908 5909 5909 5909 5908 5908 5907 5908 5910 5911 5911 5910 5908 5907 5907 5907 5908 5908 5908 5908 5909
5885 5884 5884 5883 5883 5882 5882 5881 5881 5880 5880 5879 5879 5879 5878 5878 5878 5878 5878 5877 5877 5877 5878 5878 5879 5878 5876 5876 5877 5877 5878 5878 5877 5876 5877 5877 5877 5877 5878 5878 5879 5879 5880 5881 5882 5883 5884 5884 5885 5887 5888 5889 5892 5895 5895 5895 5896 5897 5897 5898 5898 5896 5897 5899 5901 5904 5906 5908 5907 5907 5908 5907 5906 5906 5908 5909 5910 5911 5910 5909 5907 5907 5907 5907 5908 5908 5908 5908
5882 5882 5881 5881 5880 5880 5880 5879 5879 5878 5878 5877 5877 5876 5876 5876 5876 5876 5876 5875 5875 5875 5876 5876 5877 5877 5874 5874 5876 5876 5875 5876 5876 5875 5875 5875 5876 5876 5876 5876 5877 5877 5878 5879 5880 5881 5882 5882 5883 5884 5886 5888 5890 5891 5893 5893 5894 5895 5896 5898 5897 5897 5897 5898 5900 5903 5905 5906 5906 5906 5907 5906 5904 5905 5907 5908 5909 5910 5911 5910 5908 5907 5907 5907 5908 5908 5908 5908
5880 5879 5879 5878 5878 5877 5877 5877 5876 5876 5875 5875 5874 5873 5873 5874 5874 5873 5873 5873 5873 5873 5873 5874 5875 5875 5873 5872 5873 5873 5872 5873 5873 5874 5874 5874 5874 5874 5874 5874 5875 5876 5876 5876 5877 5878 5879 5880 5882 5883 5884 5885 5886 5888 5890 5890 5891 5893 5895 5897 5898 5897 5898 5899 5901 5904 5904 5904 5904 5904 5906 5905 5903 5904 5906 5908 5909 5909 5910 5911 5910 5908 5908 5908 5908 5908 5908 5908
5877 5876 5876 5875 5875 5874 5874 5874 5874 5873 5872 5872 5872 5870 5871 5872 5872 5871 5871 5871 5871 5870 5870 5872 5873 5873 5872 5870 5870 5870 5870 5870 5870 5871 5872 5872 5872 5872 5873 5873 5873 5874 5874 5874 5874 5875 5876 5878 5880 5881 5882 5883 5884 5885 5886 5887 5889 5891 5893 5896 5898 5898 5898 5898 5901 5903 5903 5903 5902 5903 5905 5905 5903 5903 5905 5907 5908 5909 5910 5911 5911 5909 5908 5908 5908 5908 5908 5908
5873 5873 5872 5872 5871 5871 5871 5871 5871 5870 5869 5869 5869 5868 5868 5869 5869 5868 5868 5869 5869 5868 5868 5870 5871 5871 5870 5869 5868 5867 5868 5868 5868 5869 5870 5870 5870 5871 5871 5871 5871 5871 5872 5872 5872 5873 5874 5875 5877 5879 5880 5881 5882 5883 5884 5887 5889 5890 5892 5895 5897 5898 5897 5898 5899 5901 5902 5902 5902 5903 5904 5904 5903 5902 5903 5905 5907 5909 5910 5911 5911 5910 5908 5908 5908 5908 5908 5908
5870 5869 5868 5867 5867 5867 5867 5867 5867 5867 5866 5865 5865 5866 5865 5866 5865 5865 5866 5866 5866 5865 5865 5867 5869 5869 5868 5867 5866 5865 5866 5866 5866 5866 5867 5868 5868 5868 5869 5869 5869 5869 5870 5870 5871 5871 5871 5872 5874 5876 5878 5879 5880 5882 5884 5887 5888 5889 5891 5893 5895 5897 5897 5897 5898 5900 5901 5901 5901 5902 5903 5903 5902 5901 5902 5904 5906 5907 5909 5910 5911 5910 5909 5907 5907 5908 5908 5908
5866 5865 5864 5863 5863 5863 5863 5863 5863 5863 5862 5861 5862 5862 5862 5862 5861 5862 5863 5862 5862 5862 5863 5864 5866 5866 5865 5863 5863 5863 5863 5863 5864 5864 5864 5865 5865 5865 5866 5866 5867 5867 5868 5869 5869 5870 5869 5869 5870 5873 5876 5878 5879 5881 5882 5884 5885 5886 5887 5889 5892 5895 5895 5896 5898 5898 5899 5899 5899 5901 5902 5902 5901 5900 5901 5903 5904 5906 5907 5908 5910 5910 5909 5907 5907 5907 5908 5908
5861 5861 5861 5860 5859 5858 5859 5860 5859 5859 5859 5859 5858 5858 5859 5858 5857 5857 5859 5859 5859 5859 5860 5860 5862 5864 5862 5859 5860 5861 5861 5862 5863 5862 5862 5862 5862 5863 5864 5864 5865 5866 5867 5867 5867 5867 5867 5867 5869 5872 5874 5876 5877 5878 5879 5881 5882 5883 5884 5886 5889 5892 5894 5896 5895 5895 5896 5898 5899 5901 5902 5901 5900 5900 5900 5901 5903 5905 5906 5907 5908 5909 5909 5908 5906 5906 5907 5907
5857 5856 5856 5856 5854 5853 5854 5855 5855 5855 5855 5855 5855 5854 5854 5854 5853 5853 5855 5857 5857 5855 5856 5857 5857 5861 5860 5856 5856 5857 5859 5860 5861 5860 5859 5859 5860 5861 5861 5862 5863 5864 5864 5864 5865 5865 5865 5867 5869 5870 5872 5873 5874 5875 5876 5878 5879 5880 5882 5884 5886 5889 5892 5894 5893 5892 5893 5896 5898 5900 5901 5901 5901 5900 5899 5900 5902 5904 5905 5905 5906 5907 5907 5907 5907 5906 5906 5906
5851 5852 5852 5851 5850 5848 5848 5850 5850 5850 5851 5851 5851 5850 5850 5849 5849 5850 5851 5854 5855 5851 5852 5853 5853 5856 5857 5854 5852 5852 5856 5858 5858 5857 5857 5857 5858 5858 5859 5859 5860 5861 5861 5862 5862 5863 5865 5867 5867 5867 5868 5869 5871 5872 5874 5875 5876 5878 5879 5881 5884 5887 5890 5892 5892 5892 5893 5895 5897 5899 5900 5901 5901 5900 5898 5899 5900 5901 5902 5903 5904 5905 5906 5907 5906 5906 5906 5906
5846 5846 5846 5846 5846 5844 5843 5844 5844 5844 5845 5847 5847 5846 5845 5845 5845 5846 5847 5849 5852 5850 5847 5848 5850 5853 5854 5850 5847 5849 5854 5856 5855 5855 5855 5855 5855 5856 5857 5857 5857 5858 5859 5860 5860 5861 5863 5865 5864 5864 5865 5866 5868 5869 5870 5872 5874 5876 5877 5879 5882 5885 5888 5891 5892 5892 5892 5893 5894 5896 5897 5898 5898 5898 5898 5898 5898 5899 5900 5900 5902 5903 5905 5906 5906 5906 5906 5905
5840 5840 5841 5841 5841 5840 5837 5837 5838 5839 5840 5841 5842 5841 5840 5840 5840 5842 5842 5843 5848 5849 5844 5843 5846 5849 5848 5846 5846 5847 5849 5852 5852 5852 5852 5852 5852 5854 5854 5854 5854 5856 5857 5857 5857 5859 5862 5862 5862 5862 5863 5864 5865 5866 5868 5870 5872 5874 5875 5878 5881 5883 5886 5889 5890 5890 5890 5890 5891 5893 5894 5894 5895 5895 5896 5897 5897 5897 5898 5898 5899 5901 5903 5904 5905 5906 5905 5905
5834 5834 5835 5835 5835 5835 5832 5831 5832 5833 5833 5835 5836 5836 5834 5835 5835 5836 5837 5836 5842 5846 5841 5839 5841 5843 5844 5844 5844 5843 5844 5848 5848 5847 5849 5849 5850 5851 5850 5850 5853 5854 5854 5853 5854 5857 5859 5859 5859 5860 5861 5861 5862 5863 5865 5867 5869 5871 5875 5878 5880 5881 5883 5885 5887 5887 5886 5887 5889 5890 5891 5892 5892 5892 5893 5894 5895 5895 5895 5896 5897 5899 5901 5903 5904 5905 5905 5904
5828 5827 5828 5828 5829 5830 5828 5826 5826 5827 5828 5829 5830 5830 5829 5830 5830 5831 5832 5830 5835 5840 5838 5837 5837 5838 5840 5839 5839 5841 5842 5844 5843 5844 5847 5846 5847 5848 5846 5848 5851 5851 5851 5850 5851 5856 5856 5855 5856 5858 5858 5859 5859 5861 5863 5865 5866 5870 5875 5876 5877 5879 5880 5882 5884 5884 5884 5885 5886 5886 5888 5889 5889 5889 5891 5891 5892 5892 5892 5894 5895 5897 5898 5900 5902 5904 5904 5903
5821 5820 5821 5821 5821 5823 5823 5821 5819 5820 5821 5822 5824 5824 5823 5824 5825 5826 5826 5824 5829 5835 5834 5833 5833 5833 5835 5835 5836 5838 5838 5839 5839 5841 5842 5841 5843 5844 5844 5846 5848 5848 5847 5846 5850 5853 5852 5853 5855 5855 5855 5856 5858 5860 5862 5862 5863 5869 5874 5873 5874 5877 5877 5880 5881 5881 5883 5883 5880 5881 5884 5884 5883 5886 5889 5889 5888 5889 5890 5892 5893 5894 5896 5897 5900 5902 5902 5903
5814 5813 5813 5813 5813 5814 5815 5816 5815 5813 5814 5816 5817 5817 5818 5819 5819 5820 5819 5818 5823 5828 5828 5828 5829 5829 5830 5830 5832 5834 5834 5835 5835 5835 5836 5838 5840 5841 5842 5843 5843 5843 5843 5843 5848 5850 5849 5851 5852 5851 5852 5854 5857 5858 5859 5859 5861 5867 5870 5869 5871 5873 5874 5877 5876 5878 5881 5877 5874 5878 5880 5879 5879 5882 5885 5884 5884 5886 5888 5890 5891 5892 5894 5895 5897 5899 5901 5901
5806 5806 5805 5806 5806 5806 5806 5809 5810 5808 5807 5809 5810 5811 5812 5812 5813 5813 5811 5813 5820 5822 5821 5823 5824 5824 5825 5825 5828 5829 5829 5830 5830 5829 5831 5834 5836 5837 5838 5839 5838 5839 5839 5840 5845 5847 5847 5847 5847 5847 5850 5853 5854 5854 5855 5856 5858 5864 5865 5865 5868 5869 5871 5873 5872 5875 5874 5868 5869 5875 5876 5876 5875 5877 5879 5879 5881 5885 5888 5888 5889 5890 5892 5893 5895 5896 5898 5900
5798 5797 5796 5797 5798 5798 5797 5798 5802 5803 5801 5801 5802 5804 5805 5805 5806 5805 5804 5810 5816 5814 5814 5817 5817 5818 5819 5820 5822 5823 5823 5825 5824 5824 5826 5829 5831 5832 5834 5834 5834 5835 5836 5837 5842 5845 5844 5843 5844 5846 5848 5850 5850 5851 5852 5854 5856 5859 5860 5862 5864 5866 5868 5868 5868 5869 5864 5859 5865 5872 5874 5873 5869 5871 5875 5876 5879 5884 5885 5886 5888 5889 5890 5891 5892 5894 5896 5897
5789 5789 5787 5787 5788 5789 5790 5789 5792 5795 5796 5795 5795 5796 5797 5797 5797 5797 5800 5807 5808 5805 5807 5809 5809 5811 5813 5813 5815 5816 5817 5819 5820 5820 5821 5824 5824 5826 5829 5831 5832 5832 5833 5836 5839 5840 5840 5840 5842 5843 5845 5846 5847 5848 5850 5851 5852 5854 5855 5857 5858 5860 5862 5861 5861 5861 5856 5857 5864 5870 5871 5867 5862 5867 5873 5875 5877 5880 5882 5884 5886 5887 5889 5889 5890 5892 5893 5895
5780 5779 5778 5777 5777 5779 5781 5782 5783 5785 5787 5789 5788 5788 5789 5788 5789 5791 5797 5800 5799 5798 5799 5801 5802 5804 5805 5806 5809 5811 5812 5814 5815 5815 5816 5818 5818 5820 5824 5826 5827 5828 5830 5832 5833 5834 5835 5837 5838 5838 5841 5843 5844 5845 5847 5848 5849 5850 5851 5852 5852 5854 5854 5853 5855 5856 5855 5858 5863 5867 5867 5861 5859 5864 5869 5872 5875 5877 5879 5882 5884 5885 5887 5887 5888 5889 5890 5892
5771 5770 5768 5767 5767 5768 5771 5772 5774 5775 5776 5778 5779 5779 5780 5780 5782 5786 5789 5791 5791 5791 5791 5792 5795 5796 5797 5800 5803 5805 5807 5808 5809 5809 5810 5811 5812 5814 5818 5821 5823 5824 5826 5827 5827 5830 5831 5832 5834 5836 5838 5840 5840 5842 5844 5846 5847 5847 5849 5849 5848 5849 5849 5851 5854 5855 5856 5858 5861 5864 5861 5855 5857 5861 5866 5870 5873 5874 5877 5879 5881 5883 5884 5885 5886 5886 5888 5889
5762 5760 5759 5757 5758 5759 5760 5761 5764 5765 5766 5768 5769 5769 5771 5774 5776 5777 5779 5781 5782 5783 5784 5785 5787 5788 5790 5794 5796 5799 5801 5803 5804 5804 5804 5805 5806 5809 5813 5817 5819 5820 5822 5822 5824 5827 5827 5829 5834 5834 5834 5836 5836 5839 5841 5842 5842 5843 5846 5845 5842 5845 5849 5851 5853 5854 5856 5856 5856 5858 5855 5853 5857 5860 5863 5868 5869 5871 5874 5876 5878 5879 5881 5882 5883 5884 5885 5887
5752 5751 5748 5746 5748 5750 5750 5750 5753 5754 5755 5757 5757 5759 5763 5765 5767 5767 5769 5771 5772 5776 5778 5778 5779 5781 5783 5786 5788 5791 5792 5794 5797 5797 5797 5799 5800 5803 5807 5810 5814 5815 5816 5818 5820 5822 5821 5826 5832 5830 5828 5831 5832 5835 5837 5836 5837 5839 5840 5839 5840 5845 5849 5849 5849 5851 5854 5851 5851 5853 5852 5852 5856 5857 5860 5864 5866 5868 5871 5872 5875 5877 5878 5879 5880 5881 5882 5884
5741 5740 5737 5736 5738 5739 5739 5740 5742 5743 5744 5745 5746 5750 5753 5754 5756 5757 5759 5761 5762 5765 5769 5770 5771 5773 5775 5776 5779 5781 5781 5784 5789 5789 5791 5793 5793 5797 5801 5804 5808 5809 5811 5814 5815 5816 5817 5820 5825 5825 5824 5827 5830 5832 5831 5831 5833 5834 5834 5837 5841 5844 5845 5844 5844 5847 5848 5845 5845 5849 5849 5850 5852 5853 5857 5861 5863 5865 5867 5869 5872 5874 5875 5876 5877 5879 5880 5881
5728 5728 5724 5725 5725 5724 5727 5730 5730 5732 5732 5733 5736 5739 5741 5743 5746 5747 5748 5749 5751 5754 5757 5760 5763 5765 5766 5768 5769 5770 5770 5774 5778 5780 5784 5785 5786 5792 5796 5797 5801 5804 5807 5809 5808 5810 5812 5813 5818 5821 5821 5823 5825 5824 5824 5825 5827 5829 5832 5835 5838 5837 5838 5839 5839 5839 5840 5840 5841 5844 5846 5846 5848 5850 5854 5858 5859 5862 5865 5867 5868 5870 5872 5873 5875 5877 5878 5879
5714 5714 5710 5711 5711 5711 5715 5717 5717 5719 5719 5721 5725 5727 5728 5731 5734 5735 5736 5738 5740 5743 5744 5747 5752 5755 5756 5758 5759 5760 5761 5764 5767 5769 5773 5777 5780 5787 5790 5791 5794 5798 5801 5802 5802 5804 5807 5806 5810 5815 5817 5819 5818 5815 5815 5820 5823 5826 5827 5829 5831 5832 5833 5835 5835 5834 5836 5836 5837 5840 5841 5842 5844 5848 5851 5854 5856 5859 5862 5864 5865 5867 5869 5871 5873 5874 5876 5877
5699 5700 5694 5695 5697 5698 5701 5702 5701 5704 5706 5709 5712 5713 5715 5718 5720 5723 5724 5726 5728 5731 5733 5736 5741 5744 5747 5749 5751 5752 5751 5754 5757 5760 5764 5770 5774 5781 5785 5785 5787 5790 5793 5795 5797 5799 5799 5798 5802 5809 5812 5811 5808 5807 5811 5817 5820 5821 5821 5822 5824 5827 5828 5830 5831 5831 5832 5832 5833 5836 5836 5837 5842 5845 5848 5850 5853 5856 5858 5861 5863 5864 5866 5868 5870 5872 5873 5875
5683 5685 5678 5676 5683 5686 5685 5684 5686 5689 5692 5695 5697 5698 5702 5705 5707 5710 5711 5713 5715 5717 5720 5724 5727 5731 5735 5739 5744 5744 5742 5745 5748 5751 5756 5762 5767 5773 5777 5778 5781 5783 5785 5786 5788 5791 5792 5792 5796 5802 5803 5801 5802 5807 5810 5813 5815 5816 5818 5819 5821 5824 5825 5826 5825 5826 5828 5828 5829 5831 5831 5833 5839 5842 5844 5847 5851 5854 5856 5859 5861 5862 5864 5865 5867 5869 5870 5872
5666 5668 5661 5659 5668 5671 5667 5667 5670 5672 5676 5679 5681 5684 5689 5690 5692 5695 5697 5699 5701 5703 5707 5710 5712 5716 5719 5725 5733 5734 5733 5736 5739 5742 5747 5753 5758 5763 5764 5765 5770 5774 5775 5777 5780 5784 5787 5788 5788 5791 5795 5797 5800 5804 5805 5807 5810 5811 5813 5816 5819 5820 5820 5821 5822 5824 5826 5826 5826 5828 5826 5829 5836 5839 5841 5845 5848 5851 5854 5856 5858 5860 5861 5863 5864 5866 5868 5869
5648 5650 5645 5643 5651 5653 5650 5651 5653 5653 5659 5663 5664 5668 5673 5674 5676 5678 5681 5684 5687 5690 5694 5696 5699 5702 5704 5710 5719 5721 5723 5727 5730 5732 5738 5744 5749 5751 5750 5752 5759 5764 5766 5768 5772 5776 5779 5779 5778 5782 5788 5793 5796 5798 5798 5800 5802 5802 5804 5810 5814 5814 5815 5819 5820 5822 5824 5823 5824 5825 5820 5823 5833 5837 5838 5843 5846 5848 5850 5852 5854 5856 5858 5860 5861 5863 5865 5866
5630 5631 5628 5626 5633 5635 5632 5633 5634 5635 5642 5646 5646 5650 5656 5657 5659 5662 5665 5669 5672 5676 5679 5681 5684 5687 5690 5697 5705 5708 5710 5716 5720 5722 5727 5733 5738 5740 5740 5745 5752 5754 5754 5756 5759 5764 5767 5768 5771 5774 5778 5783 5785 5786 5786 5789 5792 5794 5798 5803 5807 5810 5812 5814 5816 5817 5817 5817 5820 5820 5814 5818 5830 5835 5836 5839 5842 5844 5846 5848 5850 5852 5853 5855 5858 5860 5862 5863
5612 5614 5611 5609 5614 5618 5615 5614 5617 5620 5625 5628 5630 5635 5639 5640 5642 5647 5651 5654 5657 5660 5663 5666 5669 5672 5677 5684 5691 5693 5695 5703 5710 5712 5716 5723 5728 5731 5733 5738 5742 5743 5745 5747 5747 5750 5754 5758 5762 5764 5766 5770 5773 5775 5778 5783 5787 5790 5794 5797 5800 5806 5808 5808 5810 5810 5808 5811 5815 5815 5812 5817 5826 5831 5833 5835 5837 5840 5843 5845 5847 5848 5849 5851 5854 5857 5859 5860
5594 5596 5596 5595 5597 5601 5599 5597 5601 5606 5609 5611 5616 5620 5623 5625 5629 5634 5637 5640 5644 5645 5648 5652 5654 5657 5664 5671 5675 5677 5681 5691 5698 5700 5705 5713 5718 5722 5726 5730 5732 5734 5738 5740 5741 5744 5747 5749 5752 5755 5758 5763 5770 5776 5780 5782 5784 5785 5789 5791 5794 5799 5804 5805 5804 5802 5803 5809 5811 5811 5813 5817 5821 5825 5829 5832 5833 5837 5841 5843 5844 5845 5846 5848 5849 5851 5855 5857
5579 5580 5581 5582 5583 5585 5586 5585 5587 5592 5595 5597 5601 5605 5608 5611 5615 5620 5624 5627 5631 5632 5634 5639 5641 5644 5650 5656 5660 5664 5669 5678 5685 5688 5695 5703 5708 5713 5718 5721 5724 5728 5732 5734 5735 5739 5741 5743 5746 5748 5752 5758 5767 5774 5778 5779 5779 5781 5784 5787 5789 5793 5797 5799 5797 5797 5802 5806 5806 5809 5814 5815 5817 5821 5824 5828 5830 5833 5838 5840 5841 5841 5843 5844 5844 5845 5848 5852
5568 5568 5569 5571 5573 5574 5575 5575 5576 5580 5582 5584 5588 5592 5595 5598 5601 5606 5610 5613 5618 5620 5621 5625 5629 5630 5635 5643 5648 5653 5659 5666 5673 5678 5685 5693 5700 5704 5709 5712 5716 5721 5725 5726 5727 5731 5733 5737 5741 5742 5744 5751 5759 5766 5771 5774 5775 5777 5779 5782 5784 5787 5789 5791 5793 5797 5800 5800 5801 5808 5812 5812 5814 5818 5821 5824 5827 5831 5835 5836 5837 5838 5840 5840 5840 5841 5844 5846
5561 5562 5561 5563 5566 5567 5567 5567 5567 5570 5573 5574 5577 5581 5584 5587 5590 5593 5597 5601 5606 5609 5609 5612 5615 5616 5621 5630 5636 5640 5646 5654 5661 5668 5675 5683 5690 5696 5700 5705 5709 5713 5716 5718 5720 5722 5725 5731 5735 5735 5737 5743 5750 5757 5764 5767 5769 5771 5774 5776 5779 5782 5783 5785 5789 5793 5796 5796 5799 5805 5807 5807 5811 5815 5818 5821 5823 5826 5830 5831 5833 5835 5836 5836 5836 5837 5840 5841
5557 5558 5558 5558 5560 5561 5561 5562 5562 5564 5568 5568 5569 5572 5575 5577 5580 5584 5587 5590 5595 5599 5599 5598 5601 5604 5610 5617 5621 5625 5634 5641 5648 5657 5665 5671 5679 5687 5692 5697 5703 5706 5709 5711 5713 5714 5719 5725 5727 5728 5731 5736 5741 5749 5755 5760 5762 5765 5768 5771 5773 5775 5779 5781 5784 5787 5789 5791 5795 5799 5800 5802 5807 5812 5814 5817 5819 5821 5824 5826 5828 5830 5831 5832 5832 5834 5836 5838
5555 5555 5556 5556 5557 5557 5558 5559 5559 5561 5564 5563 5563 5566 5569 5571 5573 5577 5580 5583 5585 5589 5590 5588 5590 5595 5601 5606 5609 5614 5621 5626 5633 5644 5651 5658 5668 5676 5682 5689 5694 5697 5701 5705 5707 5708 5712 5718 5722 5723 5725 5730 5736 5742 5746 5753 5758 5758 5760 5764 5766 5769 5772 5775 5778 5780 5783 5787 5790 5792 5793 5797 5804 5809 5810 5812 5814 5816 5819 5822 5824 5824 5827 5829 5830 5831 5833 5834
5553 5553 5553 5554 5555 5555 5555 5556 5557 5558 5560 5560 5560 5563 5565 5567 5568 5570 5574 5577 5578 5579 5581 5582 5583 5585 5590 5597 5602 5605 5608 5612 5620 5631 5638 5646 5657 5664 5671 5680 5685 5688 5693 5698 5700 5702 5706 5712 5718 5718 5719 5725 5731 5735 5742 5748 5749 5747 5750 5756 5760 5764 5767 5770 5774 5776 5780 5783 5785 5786 5789 5795 5801 5804 5805 5806 5808 5811 5816 5819 5820 5820 5823 5825 5826 5828 5830 5832